START_TIME,STEP,MOV.,AL01,t_acc.,AL02,t_acc.,E37,t_acc.,H21,t_acc.
1979-07-16 21:00:34.340 ,0,0,1.,24.0,0.,24.0,0.,24.0,0.,24.0
1979-07-16 21:00:58.340 ,0,1,0.,24.0,1.,24.0,0.,24.0,0.,24.0
1979-07-16 21:01:22.340 ,0,0,0.,24.0,0.,24.0,0.,24.0,0.,24.0
1979-07-16 21:01:46.340 ,1,1,1.,24.0,0.,24.0,1.,24.0,0.,24.0
1979-07-16 21:02:10.340 ,1,0,0.,24.0,0.,24.0,0.,24.0,0.,24.0
1979-07-16 21:02:34.340 ,2,1,0.,24.0,0.,24.0,0.,24.0,0.,24.0
1979-07-16 21:02:58.340 ,2,0,0.,24.0,0.,24.0,0.,24.0,0.,24.0
1979-07-16 21:03:22.340 ,3,1,0.,24.0,0.,24.0,0.,24.0,0.,24.0
1979-07-16 21:03:46.340 ,3,0,0.,24.0,0.,24.0,0.,24.0,0.,24.0
1979-07-16 21:04:10.340 ,4,1,0.,24.0,1.,24.0,0.,24.0,0.,24.0
1979-07-16 21:04:34.340 ,4,0,1.,24.0,0.,24.0,1.,24.0,0.,24.0
1979-07-16 21:04:58.340 ,5,1,0.,24.0,0.,24.0,0.,24.0,0.,24.0
1979-07-16 21:05:22.340 ,5,0,1.,24.0,0.,24.0,0.,24.0,0.,24.0
1979-07-16 21:05:46.340 ,6,1,0.,24.0,0.,24.0,0.,24.0,0.,24.0
1979-07-16 21:06:10.340 ,6,0,0.,24.0,0.,24.0,0.,24.0,0.,24.0
1979-07-16 21:06:34.340 ,7,0,4.,24.0,1.,24.0,1.,24.0,0.,24.0
1979-07-16 21:06:58.340 ,7,0,37.,24.0,0.,24.0,0.,24.0,0.,24.0
1979-07-16 21:07:22.340 ,5,1,17.,24.0,0.,24.0,0.,24.0,0.,24.0
1979-07-16 21:07:46.340 ,1,1,0.,24.0,0.,24.0,0.,24.0,0.,24.0
1979-07-16 21:08:10.340 ,2,1,1.,24.0,0.,24.0,0.,24.0,0.,24.0
1979-07-16 21:08:34.340 ,6,1,0.,24.0,0.,24.0,0.,24.0,0.,24.0
1979-07-16 21:08:58.340 ,5,1,13.,24.0,0.,24.0,0.,24.0,0.,24.0
1979-07-16 21:09:22.340 ,1,1,1.,24.0,0.,24.0,1.,24.0,0.,24.0
1979-07-16 21:09:46.340 ,2,1,0.,24.0,0.,24.0,0.,24.0,0.,24.0
1979-07-16 21:10:10.340 ,6,1,0.,24.0,0.,24.0,2.,24.0,0.,24.0
1979-07-16 21:10:34.340 ,5,1,11.,24.0,0.,24.0,1.,24.0,0.,24.0
1979-07-16 21:10:58.340 ,1,1,1.,24.0,0.,24.0,0.,24.0,0.,24.0
1979-07-16 21:11:22.340 ,2,1,0.,24.0,0.,24.0,0.,24.0,0.,24.0
1979-07-16 21:11:46.340 ,6,1,1.,24.0,0.,24.0,2.,24.0,0.,24.0
1979-07-16 21:12:10.340 ,5,1,16.,24.0,0.,24.0,0.,24.0,0.,24.0
1979-07-16 21:12:34.340 ,1,1,1.,24.0,0.,24.0,0.,24.0,0.,24.0
1979-07-16 21:12:58.340 ,2,1,0.,24.0,0.,24.0,4.,24.0,0.,24.0
1979-07-16 21:13:22.340 ,6,1,1.,24.0,1.,24.0,3.,24.0,0.,24.0
1979-07-16 21:13:46.340 ,5,1,11.,24.0,0.,24.0,6.,24.0,0.,24.0
1979-07-16 21:14:10.340 ,1,1,1.,24.0,1.,24.0,1.,24.0,0.,24.0
1979-07-16 21:14:34.340 ,2,1,0.,24.0,1.,24.0,2.,24.0,0.,24.0
1979-07-16 21:14:58.340 ,6,1,0.,24.0,0.,24.0,0.,24.0,0.,24.0
1979-07-16 21:15:22.340 ,5,1,17.,24.0,0.,24.0,0.,24.0,0.,24.0
1979-07-16 21:15:46.340 ,1,1,1.,24.0,1.,24.0,1.,24.0,0.,24.0
1979-07-16 21:16:10.340 ,2,1,0.,24.0,1.,24.0,2.,24.0,0.,24.0
1979-07-16 21:16:34.340 ,6,1,0.,24.0,0.,24.0,2.,24.0,0.,24.0
1979-07-16 21:16:58.340 ,5,1,13.,24.0,0.,24.0,2.,24.0,0.,24.0
1979-07-16 21:17:22.340 ,1,1,3.,24.0,1.,24.0,0.,24.0,0.,24.0
1979-07-16 21:17:46.340 ,0,0,0.,24.0,0.,24.0,5.,24.0,0.,24.0
1979-07-16 21:18:10.340 ,0,0,0.,24.0,0.,24.0,2.,24.0,0.,24.0
1979-07-16 21:18:34.340 ,5,1,18.,24.0,0.,24.0,2.,24.0,0.,24.0
1979-07-16 21:18:58.340 ,5,0,1.,24.0,0.,24.0,3.,24.0,0.,24.0
1979-07-16 21:19:22.340 ,4,1,0.,24.0,0.,24.0,3.,24.0,0.,24.0
1979-07-16 21:19:46.340 ,4,0,1.,24.0,0.,24.0,2.,24.0,0.,24.0
1979-07-16 21:20:10.340 ,3,1,2.,24.0,0.,24.0,5.,24.0,0.,24.0
1979-07-16 21:20:34.340 ,3,0,0.,24.0,0.,24.0,1.,24.0,0.,24.0
1979-07-16 21:20:58.340 ,2,1,1.,24.0,0.,24.0,1.,24.0,0.,24.0
1979-07-16 21:21:22.340 ,2,0,2.,24.0,0.,24.0,2.,24.0,0.,24.0
1979-07-16 21:21:46.340 ,1,1,3.,24.0,1.,24.0,1.,24.0,0.,24.0
1979-07-16 21:22:10.340 ,1,0,0.,24.0,0.,24.0,0.,24.0,0.,24.0
1979-07-16 21:22:34.340 ,0,1,0.,24.0,1.,24.0,1.,24.0,0.,24.0
1979-07-16 21:22:58.340 ,0,0,0.,24.0,0.,24.0,2.,24.0,0.,24.0
1979-07-16 21:23:22.340 ,0,1,1.,24.0,0.,24.0,3.,24.0,0.,24.0
1979-07-16 21:23:46.340 ,0,0,0.,24.0,0.,24.0,2.,24.0,0.,24.0
1979-07-16 21:24:10.340 ,1,1,0.,24.0,0.,24.0,0.,24.0,0.,24.0
1979-07-16 21:24:34.340 ,1,0,2.,24.0,0.,24.0,2.,24.0,0.,24.0
1979-07-16 21:24:58.340 ,2,1,2.,24.0,0.,24.0,3.,24.0,0.,24.0
1979-07-16 21:25:22.340 ,2,0,0.,24.0,1.,24.0,1.,24.0,0.,24.0
1979-07-16 21:25:46.340 ,3,1,3.,24.0,0.,24.0,2.,24.0,0.,24.0
1979-07-16 21:26:10.340 ,3,0,1.,24.0,0.,24.0,3.,24.0,0.,24.0
1979-07-16 21:26:34.340 ,4,1,1.,24.0,1.,24.0,1.,24.0,0.,24.0
1979-07-16 21:26:58.340 ,4,0,1.,24.0,0.,24.0,1.,24.0,0.,24.0
1979-07-16 21:27:22.340 ,5,1,0.,24.0,0.,24.0,3.,24.0,0.,24.0
1979-07-16 21:27:46.340 ,5,0,2.,24.0,0.,24.0,1.,24.0,0.,24.0
1979-07-16 21:28:10.340 ,6,1,0.,24.0,1.,24.0,1.,24.0,0.,24.0
1979-07-16 21:28:34.340 ,6,0,1.,24.0,0.,24.0,2.,24.0,0.,24.0
1979-07-16 21:28:58.340 ,7,1,8.,24.0,1.,24.0,1.,24.0,0.,24.0
1979-07-16 21:29:22.340 ,7,0,22.,24.0,0.,24.0,1.,24.0,0.,24.0
1979-07-16 21:29:46.340 ,7,1,25.,24.0,0.,24.0,2.,24.0,0.,24.0
1979-07-16 21:30:10.340 ,7,0,34.,24.0,0.,24.0,3.,24.0,0.,24.0
1979-07-16 21:30:34.340 ,6,1,16.,24.0,0.,24.0,1.,24.0,0.,24.0
1979-07-16 21:30:58.340 ,6,0,0.,24.0,1.,24.0,2.,24.0,0.,24.0
1979-07-16 21:31:22.340 ,5,1,0.,24.0,0.,24.0,1.,24.0,0.,24.0
1979-07-16 21:31:46.340 ,5,0,2.,24.0,0.,24.0,2.,24.0,0.,24.0
1979-07-16 21:32:10.340 ,4,1,0.,24.0,0.,24.0,2.,24.0,0.,24.0
1979-07-16 21:32:34.340 ,4,0,0.,24.0,0.,24.0,1.,24.0,0.,24.0
1979-07-16 21:32:58.340 ,3,1,0.,24.0,0.,24.0,4.,24.0,0.,24.0
1979-07-16 21:33:22.340 ,3,0,0.,24.0,0.,24.0,2.,24.0,0.,24.0
1979-07-16 21:33:46.340 ,2,1,0.,24.0,0.,24.0,2.,24.0,0.,24.0
1979-07-16 21:34:10.340 ,2,0,4.,24.0,1.,24.0,1.,24.0,0.,24.0
1979-07-16 21:34:34.340 ,1,1,2.,24.0,0.,24.0,1.,24.0,0.,24.0
1979-07-16 21:34:58.340 ,1,0,0.,24.0,0.,24.0,1.,24.0,0.,24.0
1979-07-16 21:35:22.340 ,0,1,0.,24.0,0.,24.0,4.,24.0,0.,24.0
1979-07-16 21:35:46.340 ,0,0,1.,24.0,1.,24.0,1.,24.0,0.,24.0
1979-07-16 21:36:10.340 ,0,1,0.,24.0,0.,24.0,0.,24.0,0.,24.0
1979-07-16 21:36:34.340 ,0,0,0.,24.0,0.,24.0,3.,24.0,0.,24.0
1979-07-16 21:36:58.340 ,1,1,1.,24.0,0.,24.0,3.,24.0,0.,24.0
1979-07-16 21:37:22.340 ,1,0,2.,24.0,0.,24.0,2.,24.0,0.,24.0
1979-07-16 21:37:46.340 ,2,1,1.,24.0,0.,24.0,1.,24.0,0.,24.0
1979-07-16 21:38:10.340 ,2,0,5.,24.0,0.,24.0,0.,24.0,0.,24.0
1979-07-16 21:38:34.340 ,3,1,2.,24.0,1.,24.0,1.,24.0,0.,24.0
1979-07-16 21:38:58.340 ,3,0,0.,24.0,0.,24.0,3.,24.0,0.,24.0
1979-07-16 21:39:22.340 ,4,1,3.,24.0,2.,24.0,2.,24.0,0.,24.0
1979-07-16 21:39:46.340 ,4,0,1.,24.0,0.,24.0,5.,24.0,0.,24.0
1979-07-16 21:40:10.340 ,5,1,0.,24.0,0.,24.0,2.,24.0,0.,24.0
1979-07-16 21:40:34.340 ,5,0,0.,24.0,0.,24.0,4.,24.0,0.,24.0
1979-07-16 21:40:58.340 ,6,1,2.,24.0,0.,24.0,1.,24.0,0.,24.0
1979-07-16 21:41:22.340 ,6,0,0.,24.0,1.,24.0,5.,24.0,0.,24.0
1979-07-16 21:41:46.340 ,7,1,6.,24.0,0.,24.0,2.,24.0,0.,24.0
1979-07-16 21:42:10.340 ,7,0,27.,24.0,0.,24.0,3.,24.0,0.,24.0
1979-07-16 21:42:34.340 ,7,1,23.,24.0,0.,24.0,3.,24.0,0.,24.0
1979-07-16 21:42:58.340 ,7,0,42.,24.0,0.,24.0,1.,24.0,0.,24.0
1979-07-16 21:43:22.340 ,6,1,26.,24.0,0.,24.0,4.,24.0,0.,24.0
1979-07-16 21:43:46.340 ,6,0,1.,24.0,0.,24.0,1.,24.0,0.,24.0
1979-07-16 21:44:10.340 ,5,1,1.,24.0,1.,24.0,2.,24.0,0.,24.0
1979-07-16 21:44:34.340 ,5,0,0.,24.0,0.,24.0,1.,24.0,0.,24.0
1979-07-16 21:44:58.340 ,4,1,0.,24.0,1.,24.0,4.,24.0,0.,24.0
1979-07-16 21:45:22.340 ,4,0,1.,24.0,1.,24.0,1.,24.0,0.,24.0
1979-07-16 21:45:46.340 ,3,1,1.,24.0,1.,24.0,1.,24.0,0.,24.0
1979-07-16 21:46:10.340 ,3,0,0.,24.0,1.,24.0,3.,24.0,0.,24.0
1979-07-16 21:46:34.340 ,2,1,5.,24.0,1.,24.0,5.,24.0,0.,24.0
1979-07-16 21:46:58.340 ,2,0,4.,24.0,0.,24.0,2.,24.0,0.,24.0
1979-07-16 21:47:22.340 ,1,1,0.,24.0,1.,24.0,6.,24.0,0.,24.0
1979-07-16 21:47:46.340 ,1,0,0.,24.0,0.,24.0,5.,24.0,0.,24.0
1979-07-16 21:48:10.340 ,0,1,2.,24.0,0.,24.0,4.,24.0,0.,24.0
1979-07-16 21:48:34.340 ,0,0,1.,24.0,0.,24.0,3.,24.0,0.,24.0
1979-07-16 21:48:58.340 ,0,1,0.,24.0,1.,24.0,2.,24.0,0.,24.0
1979-07-16 21:49:22.340 ,0,0,4.,24.0,0.,24.0,2.,24.0,0.,24.0
1979-07-16 21:49:46.340 ,1,1,0.,24.0,0.,24.0,3.,24.0,0.,24.0
1979-07-16 21:50:10.340 ,1,0,2.,24.0,0.,24.0,1.,24.0,0.,24.0
1979-07-16 21:50:34.340 ,2,1,0.,24.0,1.,24.0,4.,24.0,0.,24.0
1979-07-16 21:50:58.340 ,2,0,6.,24.0,0.,24.0,1.,24.0,0.,24.0
1979-07-16 21:51:22.340 ,3,1,2.,24.0,1.,24.0,3.,24.0,0.,24.0
1979-07-16 21:51:46.340 ,3,0,1.,24.0,0.,24.0,1.,24.0,0.,24.0
1979-07-16 21:52:10.340 ,4,1,1.,24.0,1.,24.0,5.,24.0,0.,24.0
1979-07-16 21:52:34.340 ,4,0,1.,24.0,0.,24.0,1.,24.0,0.,24.0
1979-07-16 21:52:58.340 ,5,1,0.,24.0,2.,24.0,5.,24.0,0.,24.0
1979-07-16 21:53:22.340 ,5,0,3.,24.0,0.,24.0,2.,24.0,0.,24.0
1979-07-16 21:53:46.340 ,6,1,2.,24.0,0.,24.0,4.,24.0,0.,24.0
1979-07-16 21:54:10.340 ,6,0,2.,24.0,0.,24.0,2.,24.0,0.,24.0
1979-07-16 21:54:34.340 ,7,0,7.,24.0,0.,24.0,2.,24.0,0.,24.0
1979-07-16 21:54:58.340 ,7,0,33.,24.0,0.,24.0,2.,24.0,0.,24.0
1979-07-16 21:55:22.340 ,5,1,19.,24.0,1.,24.0,4.,24.0,0.,24.0
1979-07-16 21:55:46.340 ,1,1,2.,24.0,0.,24.0,3.,24.0,0.,24.0
1979-07-16 21:56:10.340 ,2,1,0.,24.0,0.,24.0,4.,24.0,0.,24.0
1979-07-16 21:56:34.340 ,6,1,0.,24.0,0.,24.0,1.,24.0,0.,24.0
1979-07-16 21:56:58.340 ,5,1,12.,24.0,0.,24.0,2.,24.0,0.,24.0
1979-07-16 21:57:22.340 ,1,1,1.,24.0,0.,24.0,1.,24.0,0.,24.0
1979-07-16 21:57:46.340 ,2,1,1.,24.0,1.,24.0,3.,24.0,0.,24.0
1979-07-16 21:58:10.340 ,6,1,3.,24.0,0.,24.0,4.,24.0,0.,24.0
1979-07-16 21:58:34.340 ,5,1,16.,24.0,1.,24.0,5.,24.0,0.,24.0
1979-07-16 21:58:58.340 ,1,1,3.,24.0,2.,24.0,3.,24.0,0.,24.0
1979-07-16 21:59:22.340 ,2,1,0.,24.0,0.,24.0,3.,24.0,0.,24.0
1979-07-16 21:59:46.340 ,6,1,0.,24.0,0.,24.0,3.,24.0,0.,24.0
1979-07-16 22:00:10.340 ,5,1,11.,24.0,0.,24.0,5.,24.0,0.,24.0
1979-07-16 22:00:34.340 ,1,1,3.,24.0,0.,24.0,3.,24.0,0.,24.0
1979-07-16 22:00:58.340 ,2,1,0.,24.0,0.,24.0,5.,24.0,0.,24.0
1979-07-16 22:01:22.340 ,6,1,1.,24.0,1.,24.0,1.,24.0,0.,24.0
1979-07-16 22:01:46.340 ,5,1,18.,24.0,0.,24.0,4.,24.0,0.,24.0
1979-07-16 22:02:10.340 ,1,1,1.,24.0,1.,24.0,1.,24.0,0.,24.0
1979-07-16 22:02:34.340 ,2,1,2.,24.0,0.,24.0,4.,24.0,0.,24.0
1979-07-16 22:02:58.340 ,6,1,2.,24.0,0.,24.0,6.,24.0,0.,24.0
1979-07-16 22:03:22.340 ,5,1,13.,24.0,0.,24.0,3.,24.0,0.,24.0
1979-07-16 22:03:46.340 ,1,1,1.,24.0,0.,24.0,5.,24.0,0.,24.0
1979-07-16 22:04:10.340 ,2,1,2.,24.0,0.,24.0,1.,24.0,0.,24.0
1979-07-16 22:04:34.340 ,6,1,2.,24.0,1.,24.0,0.,24.0,0.,24.0
1979-07-16 22:04:58.340 ,5,1,17.,24.0,0.,24.0,2.,24.0,0.,24.0
1979-07-16 22:05:22.340 ,1,1,2.,24.0,2.,24.0,2.,24.0,0.,24.0
1979-07-16 22:05:46.340 ,0,0,1.,24.0,0.,24.0,5.,24.0,0.,24.0
1979-07-16 22:06:10.340 ,0,0,1.,24.0,0.,24.0,6.,24.0,0.,24.0
1979-07-16 22:06:34.340 ,5,1,16.,24.0,0.,24.0,0.,24.0,0.,24.0
1979-07-16 22:06:58.340 ,5,0,0.,24.0,0.,24.0,7.,24.0,0.,24.0
1979-07-16 22:07:22.340 ,4,1,0.,24.0,0.,24.0,2.,24.0,0.,24.0
1979-07-16 22:07:46.340 ,4,0,1.,24.0,0.,24.0,4.,24.0,0.,24.0
1979-07-16 22:08:10.340 ,3,1,2.,24.0,0.,24.0,3.,24.0,0.,24.0
1979-07-16 22:08:34.340 ,3,0,2.,24.0,1.,24.0,1.,24.0,0.,24.0
1979-07-16 22:08:58.340 ,2,1,0.,24.0,0.,24.0,2.,24.0,0.,24.0
1979-07-16 22:09:22.340 ,2,0,1.,24.0,1.,24.0,4.,24.0,0.,24.0
1979-07-16 22:09:46.340 ,1,1,4.,24.0,0.,24.0,2.,24.0,0.,24.0
1979-07-16 22:10:10.340 ,1,0,0.,24.0,2.,24.0,4.,24.0,0.,24.0
1979-07-16 22:10:34.340 ,0,1,1.,24.0,0.,24.0,3.,24.0,0.,24.0
1979-07-16 22:10:58.340 ,0,0,0.,24.0,0.,24.0,5.,24.0,0.,24.0
1979-07-16 22:11:22.340 ,0,1,0.,24.0,0.,24.0,3.,24.0,0.,24.0
1979-07-16 22:11:46.340 ,0,0,1.,24.0,1.,24.0,1.,24.0,0.,24.0
1979-07-16 22:12:10.340 ,1,1,1.,24.0,0.,24.0,1.,24.0,0.,24.0
1979-07-16 22:12:34.340 ,1,0,0.,24.0,0.,24.0,5.,24.0,0.,24.0
1979-07-16 22:12:58.340 ,2,1,3.,24.0,0.,24.0,5.,24.0,0.,24.0
1979-07-16 22:13:22.340 ,2,0,0.,24.0,0.,24.0,3.,24.0,0.,24.0
1979-07-16 22:14:34.340 ,0,0,0.,24.0,1.,24.0,7.,24.0,0.,24.0
1979-07-16 22:14:58.340 ,0,0,2.,24.0,1.,24.0,6.,24.0,0.,24.0
1979-07-16 22:15:22.340 ,5,1,1.,24.0,0.,24.0,3.,24.0,0.,24.0
1979-07-16 22:15:46.340 ,5,0,0.,24.0,2.,24.0,1.,24.0,0.,24.0
1979-07-16 22:16:10.340 ,6,1,0.,24.0,0.,24.0,8.,24.0,0.,24.0
1979-07-16 22:16:34.340 ,6,0,1.,24.0,0.,24.0,3.,24.0,0.,24.0
1979-07-16 22:16:58.340 ,7,1,2.,24.0,1.,24.0,7.,24.0,0.,24.0
1979-07-16 22:17:22.340 ,7,0,34.,24.0,0.,24.0,2.,24.0,0.,24.0
1979-07-16 22:17:46.340 ,7,1,31.,24.0,0.,24.0,5.,24.0,0.,24.0
1979-07-16 22:18:10.340 ,7,0,31.,24.0,0.,24.0,5.,24.0,0.,24.0
1979-07-16 22:18:34.340 ,6,1,17.,24.0,1.,24.0,5.,24.0,0.,24.0
1979-07-16 22:18:58.340 ,6,0,2.,24.0,0.,24.0,7.,24.0,0.,24.0
1979-07-16 22:19:22.340 ,5,1,0.,24.0,1.,24.0,4.,24.0,0.,24.0
1979-07-16 22:19:46.340 ,5,0,0.,24.0,0.,24.0,6.,24.0,0.,24.0
1979-07-16 22:20:10.340 ,4,1,0.,24.0,1.,24.0,6.,24.0,0.,24.0
1979-07-16 22:20:34.340 ,4,0,0.,24.0,0.,24.0,5.,24.0,0.,24.0
1979-07-16 22:20:58.340 ,3,1,2.,24.0,0.,24.0,3.,24.0,0.,24.0
1979-07-16 22:21:22.340 ,3,0,1.,24.0,0.,24.0,4.,24.0,0.,24.0
1979-07-16 22:21:46.340 ,2,1,3.,24.0,1.,24.0,3.,24.0,0.,24.0
1979-07-16 22:22:10.340 ,2,0,1.,24.0,0.,24.0,4.,24.0,0.,24.0
1979-07-16 22:22:34.340 ,1,1,1.,24.0,0.,24.0,5.,24.0,0.,24.0
1979-07-16 22:22:58.340 ,1,0,2.,24.0,0.,24.0,1.,24.0,0.,24.0
1979-07-16 22:23:22.340 ,0,1,2.,24.0,0.,24.0,5.,24.0,0.,24.0
1979-07-16 22:23:46.340 ,0,0,0.,24.0,1.,24.0,5.,24.0,0.,24.0
1979-07-16 22:24:58.340 ,0,0,0.,24.0,0.,24.0,3.,24.0,0.,24.0
1979-07-16 22:25:22.340 ,0,0,3.,24.0,0.,24.0,10.,24.0,0.,24.0
1979-07-16 22:25:46.340 ,2,1,0.,24.0,0.,24.0,1.,24.0,0.,24.0
1979-07-16 22:26:10.340 ,2,0,2.,24.0,1.,24.0,7.,24.0,0.,24.0
1979-07-16 22:26:34.340 ,3,1,5.,24.0,0.,24.0,3.,24.0,0.,24.0
1979-07-16 22:26:58.340 ,3,0,2.,24.0,0.,24.0,3.,24.0,0.,24.0
1979-07-16 22:27:22.340 ,4,1,1.,24.0,0.,24.0,2.,24.0,0.,24.0
1979-07-16 22:27:46.340 ,4,0,0.,24.0,1.,24.0,6.,24.0,0.,24.0
1979-07-16 22:28:10.340 ,5,1,1.,24.0,0.,24.0,5.,24.0,0.,24.0
1979-07-16 22:28:34.340 ,5,0,3.,24.0,0.,24.0,6.,24.0,0.,24.0
1979-07-16 22:28:58.340 ,6,1,0.,24.0,0.,24.0,11.,24.0,0.,24.0
1979-07-16 22:29:22.340 ,6,0,0.,24.0,0.,24.0,7.,24.0,0.,24.0
1979-07-16 22:29:46.340 ,7,1,8.,24.0,0.,24.0,7.,24.0,0.,24.0
1979-07-16 22:30:10.340 ,7,0,20.,24.0,0.,24.0,3.,24.0,0.,24.0
1979-07-16 22:30:34.340 ,7,1,31.,24.0,0.,24.0,2.,24.0,0.,24.0
1979-07-16 22:30:58.340 ,7,0,36.,24.0,0.,24.0,2.,24.0,0.,24.0
1979-07-16 22:31:22.340 ,6,1,17.,24.0,0.,24.0,3.,24.0,0.,24.0
1979-07-16 22:31:46.340 ,6,0,0.,24.0,0.,24.0,4.,24.0,0.,24.0
1979-07-16 22:32:10.340 ,5,1,0.,24.0,0.,24.0,7.,24.0,0.,24.0
1979-07-16 22:32:34.340 ,5,0,1.,24.0,0.,24.0,2.,24.0,0.,24.0
1979-07-16 22:32:58.340 ,4,1,2.,24.0,0.,24.0,6.,24.0,0.,24.0
1979-07-16 22:33:22.340 ,4,0,3.,24.0,0.,24.0,4.,24.0,0.,24.0
1979-07-16 22:33:46.340 ,3,1,1.,24.0,0.,24.0,2.,24.0,0.,24.0
1979-07-16 22:34:10.340 ,3,0,2.,24.0,0.,24.0,4.,24.0,0.,24.0
1979-07-16 22:34:34.340 ,2,1,2.,24.0,1.,24.0,2.,24.0,0.,24.0
1979-07-16 22:34:58.340 ,2,0,5.,24.0,1.,24.0,1.,24.0,0.,24.0
1979-07-16 22:35:22.340 ,1,1,6.,24.0,0.,24.0,7.,24.0,0.,24.0
1979-07-16 22:35:46.340 ,1,0,1.,24.0,0.,24.0,5.,24.0,0.,24.0
1979-07-16 22:36:10.340 ,0,1,1.,24.0,1.,24.0,11.,24.0,0.,24.0
1979-07-16 22:36:34.340 ,0,0,1.,24.0,0.,24.0,9.,24.0,0.,24.0
1979-07-16 22:36:58.340 ,0,1,0.,24.0,0.,24.0,9.,24.0,0.,24.0
1979-07-16 22:37:22.340 ,0,0,0.,24.0,0.,24.0,11.,24.0,0.,24.0
1979-07-16 22:37:46.340 ,1,1,1.,24.0,0.,24.0,5.,24.0,0.,24.0
1979-07-16 22:38:10.340 ,1,0,3.,24.0,1.,24.0,7.,24.0,0.,24.0
1979-07-16 22:38:34.340 ,2,1,1.,24.0,0.,24.0,4.,24.0,0.,24.0
1979-07-16 22:38:58.340 ,2,0,6.,24.0,1.,24.0,7.,24.0,0.,24.0
1979-07-16 22:39:22.340 ,3,1,5.,24.0,0.,24.0,5.,24.0,0.,24.0
1979-07-16 22:39:46.340 ,3,0,2.,24.0,0.,24.0,3.,24.0,0.,24.0
1979-07-16 22:40:10.340 ,4,1,3.,24.0,1.,24.0,9.,24.0,0.,24.0
1979-07-16 22:40:34.340 ,4,0,4.,24.0,0.,24.0,14.,24.0,0.,24.0
1979-07-16 22:40:58.340 ,5,1,3.,24.0,0.,24.0,10.,24.0,0.,24.0
1979-07-16 22:41:22.340 ,5,0,0.,24.0,0.,24.0,16.,24.0,0.,24.0
1979-07-16 22:41:46.340 ,6,1,1.,24.0,0.,24.0,11.,24.0,0.,24.0
1979-07-16 22:42:10.340 ,6,0,1.,24.0,0.,24.0,11.,24.0,0.,24.0
1979-07-16 22:42:34.340 ,7,0,5.,24.0,0.,24.0,11.,24.0,0.,24.0
1979-07-16 22:42:58.340 ,7,0,33.,24.0,0.,24.0,8.,24.0,0.,24.0
1979-07-16 22:43:22.340 ,5,1,15.,24.0,1.,24.0,7.,24.0,0.,24.0
1979-07-16 22:43:46.340 ,1,1,2.,24.0,0.,24.0,12.,24.0,0.,24.0
1979-07-16 22:44:10.340 ,2,1,0.,24.0,2.,24.0,16.,24.0,0.,24.0
1979-07-16 22:44:34.340 ,6,1,1.,24.0,1.,24.0,6.,24.0,0.,24.0
1979-07-16 22:44:58.340 ,5,1,14.,24.0,0.,24.0,7.,24.0,0.,24.0
1979-07-16 22:45:22.340 ,1,1,2.,24.0,0.,24.0,8.,24.0,0.,24.0
1979-07-16 22:45:46.340 ,2,1,1.,24.0,0.,24.0,10.,24.0,0.,24.0
1979-07-16 22:46:10.340 ,6,1,6.,24.0,1.,24.0,14.,24.0,0.,24.0
1979-07-16 22:46:34.340 ,5,1,12.,24.0,0.,24.0,13.,24.0,0.,24.0
1979-07-16 22:46:58.340 ,1,1,2.,24.0,1.,24.0,9.,24.0,0.,24.0
1979-07-16 22:47:22.340 ,2,1,1.,24.0,0.,24.0,17.,24.0,0.,24.0
1979-07-16 22:47:46.340 ,6,1,1.,24.0,0.,24.0,10.,24.0,0.,24.0
1979-07-16 22:48:10.340 ,5,1,16.,24.0,0.,24.0,18.,24.0,0.,24.0
1979-07-16 22:48:34.340 ,1,1,4.,24.0,0.,24.0,19.,24.0,0.,24.0
1979-07-16 22:48:58.340 ,2,1,0.,24.0,0.,24.0,20.,24.0,0.,24.0
1979-07-16 22:49:22.340 ,6,1,0.,24.0,0.,24.0,16.,24.0,0.,24.0
1979-07-16 22:49:46.340 ,5,1,19.,24.0,1.,24.0,14.,24.0,0.,24.0
1979-07-16 22:50:10.340 ,1,1,6.,24.0,0.,24.0,14.,24.0,0.,24.0
1979-07-16 22:50:34.340 ,2,1,1.,24.0,0.,24.0,14.,24.0,0.,24.0
1979-07-16 22:50:58.340 ,6,1,1.,24.0,0.,24.0,13.,24.0,0.,24.0
1979-07-16 22:51:22.340 ,5,1,25.,24.0,0.,24.0,17.,24.0,0.,24.0
1979-07-16 22:51:46.340 ,1,1,4.,24.0,0.,24.0,16.,24.0,0.,24.0
1979-07-16 22:52:10.340 ,2,1,1.,24.0,0.,24.0,17.,24.0,0.,24.0
1979-07-16 22:52:34.340 ,6,1,2.,24.0,0.,24.0,16.,24.0,0.,24.0
1979-07-16 22:52:58.340 ,5,1,16.,24.0,1.,24.0,12.,24.0,0.,24.0
1979-07-16 22:53:22.340 ,1,1,0.,24.0,0.,24.0,12.,24.0,0.,24.0
1979-07-16 22:53:46.340 ,0,0,3.,24.0,1.,24.0,19.,24.0,0.,24.0
1979-07-16 22:54:10.340 ,0,0,0.,24.0,1.,24.0,11.,24.0,0.,24.0
1979-07-16 22:54:34.340 ,5,1,20.,24.0,0.,24.0,18.,24.0,0.,24.0
1979-07-16 22:54:58.340 ,5,0,1.,24.0,0.,24.0,20.,24.0,0.,24.0
1979-07-16 22:55:22.340 ,4,1,2.,24.0,1.,24.0,20.,24.0,0.,24.0
1979-07-16 22:55:46.340 ,4,0,0.,24.0,0.,24.0,19.,24.0,0.,24.0
1979-07-16 22:56:10.340 ,3,1,3.,24.0,0.,24.0,15.,24.0,0.,24.0
1979-07-16 22:56:34.340 ,3,0,3.,24.0,0.,24.0,10.,24.0,0.,24.0
1979-07-16 22:56:58.340 ,2,1,2.,24.0,0.,24.0,14.,24.0,0.,24.0
1979-07-16 22:57:22.340 ,2,0,5.,24.0,1.,24.0,9.,24.0,0.,24.0
1979-07-16 22:57:46.340 ,1,1,3.,24.0,0.,24.0,10.,24.0,0.,24.0
1979-07-16 22:58:10.340 ,1,0,6.,24.0,2.,24.0,9.,24.0,0.,24.0
1979-07-16 22:58:34.340 ,0,1,0.,24.0,0.,24.0,10.,24.0,0.,24.0
1979-07-16 22:58:58.340 ,0,0,2.,24.0,0.,24.0,12.,24.0,0.,24.0
1979-07-16 22:59:22.340 ,0,1,1.,24.0,1.,24.0,11.,24.0,0.,24.0
1979-07-16 22:59:46.340 ,0,0,0.,24.0,1.,24.0,15.,24.0,0.,24.0
1979-07-16 23:00:10.340 ,1,1,1.,24.0,0.,24.0,21.,24.0,0.,24.0
1979-07-16 23:00:34.340 ,1,0,2.,24.0,0.,24.0,16.,24.0,0.,24.0
1979-07-16 23:00:58.340 ,2,1,5.,24.0,0.,24.0,17.,24.0,0.,24.0
1979-07-16 23:01:22.340 ,2,0,5.,24.0,0.,24.0,11.,24.0,0.,24.0
1979-07-16 23:01:46.340 ,3,1,1.,24.0,0.,24.0,15.,24.0,0.,24.0
1979-07-16 23:02:10.340 ,3,0,1.,24.0,0.,24.0,11.,24.0,0.,24.0
1979-07-16 23:03:22.340 ,0,0,2.,24.0,1.,24.0,14.,24.0,0.,24.0
1979-07-16 23:03:46.340 ,0,0,2.,24.0,0.,24.0,12.,24.0,0.,24.0
1979-07-16 23:04:10.340 ,6,1,1.,24.0,1.,24.0,11.,24.0,0.,24.0
1979-07-16 23:04:34.340 ,6,0,0.,24.0,1.,24.0,15.,24.0,0.,24.0
1979-07-16 23:04:58.340 ,7,1,8.,24.0,0.,24.0,12.,24.0,0.,24.0
1979-07-16 23:05:22.340 ,7,0,30.,24.0,0.,24.0,10.,24.0,0.,24.0
1979-07-16 23:05:46.340 ,7,1,32.,24.0,0.,24.0,7.,24.0,0.,24.0
1979-07-16 23:06:10.340 ,7,0,28.,24.0,0.,24.0,9.,24.0,0.,24.0
1979-07-16 23:06:34.340 ,6,1,31.,24.0,0.,24.0,10.,24.0,0.,24.0
1979-07-16 23:06:58.340 ,6,0,0.,24.0,1.,24.0,6.,24.0,0.,24.0
1979-07-16 23:11:22.340 ,0,0,2.,24.0,0.,24.0,12.,24.0,0.,24.0
1979-07-16 23:11:46.340 ,0,0,1.,24.0,1.,24.0,17.,24.0,0.,24.0
1979-07-16 23:12:10.340 ,0,1,2.,24.0,0.,24.0,22.,24.0,0.,24.0
1979-07-16 23:12:34.340 ,0,0,0.,24.0,0.,24.0,14.,24.0,0.,24.0
1979-07-16 23:12:58.340 ,1,1,0.,24.0,0.,24.0,14.,24.0,0.,24.0
1979-07-16 23:13:22.340 ,1,0,3.,24.0,0.,24.0,17.,24.0,0.,24.0
1979-07-16 23:13:46.340 ,2,1,4.,24.0,1.,24.0,16.,24.0,0.,24.0
1979-07-16 23:14:10.340 ,2,0,5.,24.0,1.,24.0,23.,24.0,0.,24.0
1979-07-16 23:14:34.340 ,3,1,1.,24.0,2.,24.0,17.,24.0,0.,24.0
1979-07-16 23:14:58.340 ,3,0,2.,24.0,2.,24.0,9.,24.0,0.,24.0
1979-07-16 23:15:22.340 ,4,1,0.,24.0,1.,24.0,14.,24.0,0.,24.0
1979-07-16 23:15:46.340 ,4,0,0.,24.0,2.,24.0,22.,24.0,0.,24.0
1979-07-16 23:16:10.340 ,5,1,0.,24.0,0.,24.0,12.,24.0,0.,24.0
1979-07-16 23:16:34.340 ,5,0,2.,24.0,1.,24.0,15.,24.0,0.,24.0
1979-07-16 23:16:58.340 ,6,1,0.,24.0,0.,24.0,13.,24.0,0.,24.0
1979-07-16 23:17:22.340 ,6,0,0.,24.0,0.,24.0,10.,24.0,0.,24.0
1979-07-16 23:17:46.340 ,7,1,3.,24.0,2.,24.0,19.,24.0,0.,24.0
1979-07-16 23:18:10.340 ,7,0,37.,24.0,0.,24.0,9.,24.0,0.,24.0
1979-07-16 23:18:34.340 ,7,1,27.,24.0,0.,24.0,10.,24.0,0.,24.0
1979-07-16 23:18:58.340 ,7,0,39.,24.0,0.,24.0,12.,24.0,0.,24.0
1979-07-16 23:19:22.340 ,6,1,24.,24.0,0.,24.0,12.,24.0,0.,24.0
1979-07-16 23:19:46.340 ,6,0,2.,24.0,0.,24.0,18.,24.0,0.,24.0
1979-07-16 23:20:58.340 ,0,0,2.,24.0,0.,24.0,17.,24.0,0.,24.0
1979-07-16 23:21:22.340 ,0,0,1.,24.0,0.,24.0,17.,24.0,0.,24.0
1979-07-16 23:21:46.340 ,3,1,3.,24.0,0.,24.0,12.,24.0,0.,24.0
1979-07-16 23:22:10.340 ,3,0,2.,24.0,0.,24.0,15.,24.0,0.,24.0
1979-07-16 23:22:34.340 ,2,1,5.,24.0,2.,24.0,10.,24.0,0.,24.0
1979-07-16 23:22:58.340 ,2,0,4.,24.0,2.,24.0,18.,24.0,0.,24.0
1979-07-16 23:23:22.340 ,1,1,6.,24.0,1.,24.0,23.,24.0,0.,24.0
1979-07-16 23:23:46.340 ,1,0,5.,24.0,0.,24.0,15.,24.0,0.,24.0
1979-07-16 23:24:10.340 ,0,1,3.,24.0,0.,24.0,18.,24.0,0.,24.0
1979-07-16 23:24:34.340 ,0,0,0.,24.0,0.,24.0,21.,24.0,0.,24.0
1979-07-16 23:24:58.340 ,0,1,0.,24.0,0.,24.0,18.,24.0,0.,24.0
1979-07-16 23:25:22.340 ,0,0,1.,24.0,1.,24.0,14.,24.0,0.,24.0
1979-07-16 23:25:46.340 ,1,1,2.,24.0,0.,24.0,17.,24.0,0.,24.0
1979-07-16 23:26:10.340 ,1,0,3.,24.0,0.,24.0,17.,24.0,0.,24.0
1979-07-16 23:26:34.340 ,2,1,1.,24.0,0.,24.0,12.,24.0,0.,24.0
1979-07-16 23:26:58.340 ,2,0,5.,24.0,1.,24.0,11.,24.0,0.,24.0
1979-07-16 23:27:22.340 ,3,1,7.,24.0,0.,24.0,6.,24.0,0.,24.0
1979-07-16 23:27:46.340 ,3,0,0.,24.0,2.,24.0,8.,24.0,0.,24.0
1979-07-16 23:28:10.340 ,4,1,3.,24.0,0.,24.0,11.,24.0,0.,24.0
1979-07-16 23:28:34.340 ,4,0,1.,24.0,0.,24.0,13.,24.0,0.,24.0
1979-07-16 23:28:58.340 ,5,1,2.,24.0,1.,24.0,13.,24.0,0.,24.0
1979-07-16 23:29:22.340 ,5,0,1.,24.0,1.,24.0,12.,24.0,0.,24.0
1979-07-16 23:29:46.340 ,6,1,1.,24.0,0.,24.0,14.,24.0,0.,24.0
1979-07-16 23:30:10.340 ,6,0,0.,24.0,0.,24.0,8.,24.0,0.,24.0
1979-07-16 23:30:34.340 ,7,0,10.,24.0,0.,24.0,9.,24.0,0.,24.0
1979-07-16 23:30:58.340 ,7,0,39.,24.0,0.,24.0,9.,24.0,0.,24.0
1979-07-16 23:31:22.340 ,5,1,13.,24.0,1.,24.0,8.,24.0,0.,24.0
1979-07-16 23:31:46.340 ,1,1,3.,24.0,0.,24.0,12.,24.0,0.,24.0
1979-07-16 23:32:10.340 ,2,1,1.,24.0,0.,24.0,10.,24.0,0.,24.0
1979-07-16 23:32:34.340 ,6,1,0.,24.0,0.,24.0,6.,24.0,0.,24.0
1979-07-16 23:32:58.340 ,5,1,17.,24.0,0.,24.0,9.,24.0,0.,24.0
1979-07-16 23:33:22.340 ,1,1,8.,24.0,1.,24.0,3.,24.0,0.,24.0
1979-07-16 23:33:46.340 ,2,1,2.,24.0,1.,24.0,10.,24.0,0.,24.0
1979-07-16 23:34:10.330 ,6,1,4.,24.0,0.,24.0,4.,24.0,0.,24.0
1979-07-16 23:34:34.330 ,5,1,14.,24.0,0.,24.0,8.,24.0,0.,24.0
1979-07-16 23:34:58.330 ,1,1,3.,24.0,0.,24.0,7.,24.0,0.,24.0
1979-07-16 23:35:22.330 ,2,1,3.,24.0,3.,24.0,10.,24.0,0.,24.0
1979-07-16 23:35:46.330 ,6,1,3.,24.0,1.,24.0,6.,24.0,0.,24.0
1979-07-16 23:36:10.330 ,5,1,13.,24.0,0.,24.0,7.,24.0,0.,24.0
1979-07-16 23:36:34.330 ,1,1,4.,24.0,0.,24.0,13.,24.0,0.,24.0
1979-07-16 23:36:58.330 ,2,1,3.,24.0,0.,24.0,14.,24.0,0.,24.0
1979-07-16 23:37:22.330 ,6,1,3.,24.0,2.,24.0,17.,24.0,0.,24.0
1979-07-16 23:37:46.330 ,5,1,13.,24.0,0.,24.0,19.,24.0,0.,24.0
1979-07-16 23:38:10.330 ,1,1,2.,24.0,0.,24.0,15.,24.0,0.,24.0
1979-07-16 23:38:34.330 ,2,1,2.,24.0,2.,24.0,14.,24.0,0.,24.0
1979-07-16 23:38:58.330 ,6,1,3.,24.0,0.,24.0,13.,24.0,0.,24.0
1979-07-16 23:39:22.330 ,5,1,15.,24.0,0.,24.0,21.,24.0,0.,24.0
1979-07-16 23:39:46.330 ,1,1,4.,24.0,1.,24.0,4.,24.0,0.,24.0
1979-07-16 23:40:10.330 ,2,1,5.,24.0,0.,24.0,8.,24.0,0.,24.0
1979-07-16 23:40:34.330 ,6,1,2.,24.0,0.,24.0,11.,24.0,0.,24.0